Regional Weather Roundup
Issued by NWS

Home | Current Version | Previous Version | Text Only | Print | Product List | Glossary On
Versions: 1 2 3 4 5 6 7 8 9 10 11 12 13 14 15 16 17 18 19 20 21 22 23 24 25 26 27 28 29 30 31 32 33 34 35 36 37 38 39 40 41 42 43 44 45 46 47 48 49 50
000
ASUS43 KIND 252109
RWRIN

WEATHER ROUNDUP FOR INDIANA
NATIONAL WEATHER SERVICE INDIANAPOLIS IN
500 PM EDT TUE APR 25 2017

NOTE: "FAIR" INDICATES FEW OR NO CLOUDS BELOW 12,000 FEET WITH NO
SIGNIFICANT WEATHER AND/OR OBSTRUCTIONS TO VISIBILITY.

* - STATION DOES NOT REPORT WEATHER SUCH AS PRECIPITATION OR FOG.

+ - STATION NOT QUALITY CONTROLLED BY THE NATIONAL WEATHER SERVICE.
    USE DATA WITH CAUTION...ESPECIALLY DEWPOINT AND RELATIVE
    HUMIDITY OBSERVATIONS.

INZ001>003-010>013-019-020-252200-
NORTHWEST INDIANA

CITY           SKY/WX    TMP DP  RH WIND       PRES   REMARKS
GARY /AIRPORT/ PTSUNNY   79  41  25 SE9G21    29.60F
KNOX *+        MOSUNNY   75  27  16 SE15      29.65F
LA PORTE +     MOSUNNY   76  53  45 S12G21    29.65F
MICHIGAN CITY+ PTSUNNY   73  50  43 SE8G22    29.64F
MONTICELLO +   SUNNY     77  51  40 SE10      29.65F
RENSSELAER +   SUNNY     77  45  31 SE18      29.57F
VALPARAISO     MOSUNNY   78  53  41 SE14G22   29.63F

$$

LMZ046-743>745-252200-
SOUTHERN LAKE MICHIGAN

STATION/POSITION TIME  TEMP    WIND        PRES    WAVE
                       AIR SEA DIR/SP/G            HT
                 (UTC) (F)     (DEG/KT/KT) (MB)    (FT)
BURNS HARBOR     2040   77     170/ 15/ 22 1003.4F
MICHIGAN CITY    2040   74     150/ 10/ 13   N/A

$$

INZ004-005-014>016-021>024-252200-
NORTH CENTRAL INDIANA

CITY           SKY/WX    TMP DP  RH WIND       PRES   REMARKS
ELKHART        CLOUDY    73  55  53 SE12      29.68F
GOSHEN         MOSUNNY   73  53  49 S8        29.68F
LOGANSPORT +   MOSUNNY   75  54  46 S10       29.67F
PERU/GRISSOM   PTSUNNY   75  56  51 S9        29.66F
ROCHESTER +    MOSUNNY   77  54  44 S9        29.68F
SOUTH BEND     PTSUNNY   72  54  53 SE13G22   29.67F
WARSAW +       MOSUNNY   72  54  53 S6        29.68F

$$

INZ006>009-017-018-025>027-252200-
NORTHEAST INDIANA

CITY           SKY/WX    TMP DP  RH WIND       PRES   REMARKS
ANGOLA *+      MOSUNNY   72  55  56 SE12      29.69F
AUBURN +       MOSUNNY   75  52  43 SE3       29.69F
FORT WAYNE     PTSUNNY   74  55  51 SE3       29.69F
HUNTINGTON +   SUNNY     74  54  49 S8        29.68F
KENDALLVILLE + MOSUNNY   72  56  58 SE10      29.70F

$$

INZ028-029-035-036-043>045-051>053-252200-
WEST CENTRAL INDIANA

CITY           SKY/WX    TMP DP  RH WIND       PRES   REMARKS
CRAWFORDSVL +  MOSUNNY   76  53  45 SE12G20   29.65F
GREENCASTLE +  CLOUDY    75  54  46 SE14      29.66F
LAFAYETTE      SUNNY     75  54  47 S12G20    29.63F
TERRE HAUTE    SUNNY     77  53  43 S14       29.64F

$$

INZ030>032-037>040-046>048-054>057-064-065-252200-
CENTRAL INDIANA

CITY           SKY/WX    TMP DP  RH WIND       PRES   REMARKS
CP ATTERBURY + SUNNY     73  54  49 S8        29.68F
COLUMBUS       SUNNY     73  50  43 SE9       29.69F
FISHERS *+     MOSUNNY   75  59  57 S9G17     29.67F
FRANKFORT +    MOSUNNY   81  55  40 S8G17     29.69S
GREENWOOD *+   SUNNY     76  53  45 SE5       29.68F
INDIANAPOLIS   PTSUNNY   74  55  51 S9        29.67F
-EAGLE CREEK   SUNNY     74  53  48 SE12      29.67F
KOKOMO +       MOSUNNY   75  55  49 SE9       29.68F
MARION +       MOSUNNY   75  54  46 S9        29.69F
MT COMFORT *+  SUNNY     75  54  46 SE10G16   29.68F
SHELBYVILLE    SUNNY     78  54  43 S13G20    29.68F
ZIONSVILLE +   CLOUDY    74  55  49 S8        29.69S

$$

INZ033-034-041-042-049-050-058-059-252200-
EAST CENTRAL INDIANA

CITY           SKY/WX    TMP DP  RH WIND       PRES   REMARKS
MUNCIE         SUNNY     76  54  46 SW8       29.69F
RICHMOND +     SUNNY     72  54  53 SE8       29.71F

$$

INZ060-061-067>069-081>083-085>088-252200-
SOUTHWEST INDIANA

CITY           SKY/WX    TMP DP  RH WIND       PRES   REMARKS
EVANSVILLE     SUNNY     78  56  46 MISG      29.66F
HUNTINGBURG *+ SUNNY     77  58  51 S9        29.67F
WASHINGTON +   SUNNY    N/A N/A N/A CALM      29.65F

$$

INZ062-063-066-070>080-084-089>092-252200-
SOUTH CENTRAL AND SOUTHEAST INDIANA

CITY           SKY/WX    TMP DP  RH WIND       PRES   REMARKS
BEDFORD +      SUNNY     77  52  41 SE5       29.67F
BLOOMINGTON    SUNNY     77  54  44 SE8       29.67F
MADISON *+     SUNNY     73  54  49 S6        29.72F
NORTH VERNON + SUNNY     73  55  53 S7        29.70F
SEYMOUR +      SUNNY     77  55  47 SE7       29.68F

$$





USA.gov is the U.S. government's official web portal to all federal, state and local government web resources and services.